星链-30437 (STARLINK-30437 )

导读 | 星芒AI

STARLINK-30437 是 SpaceX Starlink 项目中的一颗低轨通信卫星,属于第 14 批组网发射的卫星之一。该卫星于 2022 年 12 月 3 日通过猎鹰 9 号火箭成功送入近地轨道,旨在为全球用户提供高速互联网服务。它运行在约 550 公里的轨道高度,具备先进的相控阵天线和激光通信技术,支持高带宽、低延迟的通信连接。作为 Starlink 卫星群的一部分,它有助于扩大覆盖范围,提升网络性能,并推动全球互联网接入的普及。

基本信息
目录编号:
58036
目录名称:
STARLINK-30437
国际标识:
2023-156J
轨道中心:
EARTH
卫星名称:
星链-30437
卫星全名:
星链-30437 (STARLINK-30437 )
卫星状态:
在轨 (已飞行752 天)
发射日期:
2023-10-09 UTC
国别 :
美国 (US)
星等 :
--
轨道信息
数据来源 国际轨道数据
星历时间: 2025-10-30T14:58:08+0800
15小时前
查看轨道信息
半长轴: 6853.393km
偏心率: 0.0001167
轨道倾角: 53.161°
近地点辐角 93.091°
升交点赤经 323.892°
平近点角 267.023°
近地点: 474.458km
远地点: 476.058km
周期: 94.106分钟
每日圈数: 15.301865
详细信息
固有亮度:
5
最大亮度:
0.3
卫星平台:
Starlink v2.0 mini
覆盖范围:
全球
运营商:
太空探索技术公司
运营商所在国:
美国
制造商(研发单位):
太空探索技术公司
制造商所在国:
美国
使用方式:
暂无
卫星简介
星链(Starlink)计划是由太空探索技术公司(SpaceX)提出的一个巨型低轨卫星互联网星座项目,计划在2019年至2024年间在太空搭建由约1.2万颗卫星组成的“星链”网络,其中1584颗将部署在地球上空550千米处的近地轨道,并从2020年开始工作。该卫星仍在工作。
2D轨道图
3D轨道图
轨道高度分析图
轨道倾角分析图
轨道综合分析图
查看轨道综合分析图